CW5478 Weather Reports


time (UTC)temp
F
wind
direction
speed
knots
gust
knots
rain 1hr
in
rain 24hr
in
rain mn
in
humidity
%
barometer
mb
20260906214802 80 247 7.0 14.8 0.00 0.04 0.00 20 1027.7
20260906214303 79 227 9.6 20.9 0.00 0.04 0.00 20 1028.1
20260906213803 79 258 9.6 15.6 0.00 0.04 0.00 20 1028.0
20260906213303 79 260 8.7 17.4 0.00 0.04 0.00 18 1028.0
20260906212803 80 263 15.6 20.9 0.00 0.04 0.00 17 1027.7
20260906212306 80 270 13.0 19.1 0.00 0.04 0.00 17 1028.0
20260906210803 79 241 14.8 19.1 0.00 0.04 0.00 17 1028.1
20260906205802 79 255 10.4 15.6 0.00 0.04 0.00 19 1028.1
20260906205306 79 258 12.2 20.9 0.00 0.04 0.00 19 1028.1
20260906204803 79 240 13.9 19.1 0.00 0.04 0.00 20 1028.1
20260906204303 79 238 11.3 19.1 0.00 0.04 0.00 20 1028.4
20260906203803 79 230 15.6 22.6 0.00 0.04 0.00 20 1028.1
20260906202306 79 266 15.6 22.6 0.00 0.04 0.00 21 1028.1
20260906201303 79 257 13.0 20.0 0.00 0.04 0.00 23 1028.1
20260906200803 80 232 13.0 19.1 0.00 0.04 0.00 24 1028.1
20260906200303 79 237 10.4 17.4 0.00 0.04 0.00 25 1028.1
20260906195803 78 262 5.2 14.8 0.00 0.04 0.00 25 1028.4
20260906195306 79 248 6.1 11.3 0.00 0.04 0.00 25 1028.4
20260906194802 78 225 5.2 8.7 0.00 0.04 0.00 25 1028.4
20260906193303 78 339 4.3 10.4 0.00 0.04 0.00 26 1028.4
20260906192803 78 43 6.1 8.7 0.00 0.04 0.00 26 1028.4
20260906192306 79 131 6.1 8.7 0.00 0.04 0.00 27 1028.4
20260906191803 79 90 8.7 11.3 0.00 0.04 0.00 26 1028.7
20260906191303 80 92 6.1 11.3 0.00 0.04 0.00 26 1028.5
20260906190302 78 152 0.9 7.8 0.00 0.04 0.00 26 1028.7
20260906185803 78 77 5.2 7.8 0.00 0.04 0.00 27 1028.7
20260906185306 78 12 1.7 7.0 0.00 0.04 0.00 27 1029.1
20260906184803 77 357 4.3 7.8 0.00 0.04 0.00 28 1029.1
20260906183803 77 273 3.5 7.8 0.00 0.04 0.00 29 1029.1
20260906183302 77 45 6.1 10.4 0.00 0.04 0.00 29 1029.1
20260906182804 77 49 5.2 10.4 0.00 0.04 0.00 29 1029.1
20260906182306 77 52 2.6 7.0 0.00 0.04 0.00 29 1029.4
20260906181303 77 101 7.0 12.2 0.00 0.04 0.00 29 1029.4
20260906180803 77 48 6.1 11.3 0.00 0.04 0.00 29 1029.7
20260906180303 77 68 6.1 11.3 0.00 0.04 0.00 30 1029.5
20260906175803 76 78 4.3 7.0 0.00 0.04 0.00 30 1029.7
20260906174803 76 44 7.8 13.0 0.00 0.04 0.00 31 1029.8
20260906174303 77 87 7.0 11.3 0.00 0.04 0.00 32 1029.8
20260906173803 77 40 7.0 11.3 0.00 0.04 0.00 31 1029.8
20260906173303 76 0 6.1 11.3 0.00 0.04 0.00 32 1029.8
20260906172803 76 47 5.2 10.4 0.00 0.04 0.00 33 1030.1
20260906172306 76 45 7.0 13.0 0.00 0.04 0.00 34 1030.1
20260906171802 75 14 6.1 12.2 0.00 0.04 0.00 35 1030.1
20260906171303 75 44 7.0 11.3 0.00 0.04 0.00 36 1030.1
20260906170803 75 26 5.2 8.7 0.00 0.04 0.00 35 1030.1
20260906170303 75 43 7.0 10.4 0.00 0.04 0.00 36 1030.1
20260906165803 74 11 6.1 8.7 0.00 0.04 0.00 37 1030.1
20260906165306 74 338 6.1 7.8 0.00 0.04 0.00 37 1030.1
20260906164803 74 22 5.2 8.7 0.00 0.04 0.00 37 1030.1
20260906164303 73 23 6.1 8.7 0.00 0.04 0.00 38 1030.1
20260906163803 72 0 3.5 7.0 0.00 0.04 0.00 39 1030.1
20260906163303 73 322 1.7 6.1 0.00 0.04 0.00 39 1030.4
20260906162306 72 0 4.3 8.7 0.00 0.04 0.00 40 1030.1
20260906161803 72 339 4.3 7.8 0.00 0.04 0.00 40 1030.1
20260906161303 71 9 5.2 7.8 0.00 0.04 0.00 41 1030.1
20260906160804 71 36 4.3 8.7 0.00 0.04 0.00 41 1030.1
20260906155306 72 45 4.3 7.0 0.00 0.04 0.00 39 1030.1
20260906154803 72 34 3.5 7.0 0.00 0.04 0.00 39 1030.1
20260906153803 71 22 5.2 7.0 0.00 0.04 0.00 41 1030.1
20260906152803 70 45 3.5 6.1 0.00 0.04 0.00 42 1030.1
20260906152306 69 0 1.7 5.2 0.00 0.04 0.00 43 1030.1
20260906151803 69 44 2.6 6.1 0.00 0.04 0.00 44 1030.1
20260906151303 68 46 3.5 7.0 0.00 0.04 0.00 44 1030.1
20260906150803 68 88 3.5 6.1 0.00 0.04 0.00 44 1030.1
20260906150304 68 90 5.2 7.8 0.00 0.04 0.00 43 1030.1
20260906145306 68 90 3.5 5.2 0.00 0.04 0.00 43 1030.1
20260906144804 68 132 4.3 7.0 0.00 0.04 0.00 43 1030.1
20260906144303 67 135 4.3 5.2 0.00 0.04 0.00 44 1030.1
20260906143803 66 169 3.5 6.1 0.00 0.04 0.00 47 1030.1
20260906143304 65 159 5.2 7.0 0.00 0.04 0.00 50 1030.1
20260906142803 64 152 5.2 7.8 0.00 0.04 0.00 51 1030.1
20260906141803 64 134 6.1 8.7 0.00 0.04 0.00 52 1030.1
20260906141303 64 135 7.0 8.7 0.00 0.04 0.00 52 1030.1
20260906140805 64 130 6.1 7.8 0.00 0.04 0.00 52 1030.4
20260906135803 63 135 5.2 7.0 0.00 0.04 0.00 53 1030.1
20260906135306 63 135 4.3 6.1 0.00 0.04 0.00 54 1030.1
20260906134803 62 180 2.6 4.3 0.00 0.04 0.00 56 1030.1
20260906133803 60 180 3.5 5.2 0.00 0.04 0.00 58 1030.1
20260906133304 59 180 2.6 2.6 0.00 0.04 0.00 60 1030.1
20260906132804 59 225 3.5 4.3 0.00 0.04 0.00 60 1030.1
20260906132306 58 225 2.6 4.3 0.00 0.04 0.00 60 1030.1
20260906131803 57 225 2.6 4.3 0.00 0.04 0.00 61 1030.1
20260906131303 57 225 4.3 4.3 0.00 0.04 0.00 62 1030.1
20260906130303 56 180 0.9 4.3 0.00 0.04 0.00 61 1030.1
20260906125804 55 225 4.3 7.0 0.00 0.04 0.00 62 1030.1
20260906125306 55 219 4.3 7.0 0.00 0.04 0.00 62 1029.8
20260906124804 55 225 6.1 7.0 0.00 0.04 0.00 63 1030.1
20260906124303 55 225 4.3 7.0 0.00 0.04 0.00 63 1029.8
20260906123804 56 225 7.8 10.4 0.00 0.04 0.00 61 1029.8
20260906123303 55 225 4.3 6.1 0.00 0.04 0.00 63 1029.8
20260906122803 55 225 5.2 6.1 0.00 0.04 0.00 64 1029.8
20260906122306 55 225 4.3 6.1 0.00 0.04 0.00 63 1029.8
20260906121803 55 225 6.1 7.0 0.00 0.04 0.00 63 1029.8
20260906121303 55 225 7.0 7.8 0.00 0.04 0.00 63 1029.8
20260906120803 55 225 5.2 7.8 0.00 0.04 0.00 63 1029.8
20260906120303 54 225 7.8 7.8 0.00 0.04 0.00 64 1029.8
20260906115803 55 225 5.2 7.0 0.00 0.04 0.00 64 1030.1
20260906114803 56 225 5.2 7.0 0.00 0.04 0.00 62 1030.1
20260906114303 55 225 5.2 7.0 0.00 0.04 0.00 62 1029.8
20260906113303 55 225 4.3 6.1 0.00 0.04 0.00 63 1029.8
20260906112803 56 225 5.2 7.0 0.00 0.04 0.00 61 1029.8
20260906111803 57 270 5.2 6.1 0.00 0.04 0.00 60 1029.8
20260906110803 59 270 2.6 5.2 0.00 0.04 0.00 56 1029.8
20260906110303 58 225 6.1 6.1 0.00 0.04 0.00 57 1029.8
20260906105804 58 225 1.7 2.6 0.00 0.04 0.00 59 1029.8
20260906105306 58 225 4.3 5.2 0.00 0.04 0.00 60 1029.8
20260906104803 58 227 4.3 5.2 0.00 0.04 0.00 59 1029.4
20260906102804 59 270 6.1 7.0 0.00 0.04 0.00 58 1029.4
20260906102306 59 270 5.2 6.1 0.00 0.04 0.00 58 1029.4
20260906101803 58 270 5.2 7.0 0.00 0.04 0.00 59 1029.4
20260906101304 58 247 6.1 8.7 0.00 0.04 0.00 61 1029.4
20260906100803 57 247 7.0 7.8 0.00 0.04 0.00 61 1029.4
20260906100303 58 227 6.1 8.7 0.00 0.04 0.00 61 1029.8
20260906095803 57 247 6.1 7.8 0.00 0.04 0.00 61 1029.4
20260906095306 57 270 7.8 10.4 0.00 0.04 0.00 61 1029.8
20260906094804 57 270 7.8 7.8 0.00 0.04 0.00 61 1029.4
20260906094304 58 247 7.0 8.7 0.00 0.04 0.00 60 1029.8
20260906093803 58 225 6.1 7.8 0.00 0.04 0.00 60 1029.8
20260906092804 59 270 6.1 8.7 0.00 0.04 0.00 59 1029.8
20260906092306 58 256 7.0 8.7 0.00 0.04 0.00 61 1029.8
20260906091803 57 225 6.1 7.8 0.00 0.04 0.00 62 1029.8
20260906091304 57 247 7.0 7.8 0.00 0.04 0.00 61 1029.4
20260906090303 58 233 6.1 7.8 0.00 0.04 0.00 61 1029.8
20260906085804 59 267 6.1 7.0 0.00 0.04 0.00 59 1029.8
20260906084803 59 247 5.2 7.8 0.00 0.04 0.00 58 1029.8
20260906084304 59 270 5.2 7.0 0.00 0.04 0.00 59 1029.8
20260906083804 59 270 7.8 10.4 0.00 0.04 0.00 59 1029.8
20260906083303 59 270 6.1 7.8 0.00 0.04 0.00 58 1029.8
20260906082804 60 270 6.1 7.0 0.00 0.04 0.00 56 1029.4
20260906082305 61 270 5.2 7.0 0.00 0.04 0.00 55 1029.8
20260906081803 61 282 4.3 6.1 0.00 0.04 0.00 54 1029.8
20260906081303 62 270 5.2 7.0 0.00 0.04 0.00 54 1029.8
20260906080803 61 315 5.2 6.1 0.00 0.04 0.00 55 1029.4
20260906080303 61 270 5.2 7.0 0.00 0.04 0.00 55 1029.4
20260906075803 60 270 6.1 7.0 0.00 0.04 0.00 56 1029.4
20260906075306 59 270 6.1 7.8 0.00 0.04 0.00 58 1029.4
20260906074303 59 247 7.0 7.8 0.00 0.04 0.00 60 1029.4
20260906073803 59 247 6.1 7.8 0.00 0.04 0.00 59 1029.4
20260906073304 60 270 6.1 7.8 0.00 0.04 0.00 57 1029.4
20260906072804 61 247 6.1 7.0 0.00 0.04 0.00 55 1029.4
20260906071803 61 270 6.1 8.7 0.00 0.04 0.00 56 1029.4
20260906071303 61 247 6.1 7.8 0.00 0.04 0.00 56 1029.4
20260906070803 61 247 5.2 7.0 0.00 0.04 0.00 57 1029.4
20260906070303 61 247 6.1 8.7 0.00 0.04 0.00 57 1029.1
20260906065803 61 248 6.1 7.0 0.00 0.04 0.00 57 1029.4
20260906065305 61 247 4.3 6.1 0.00 0.04 0.00 58 1029.4
20260906063803 60 225 4.3 7.0 0.00 0.04 0.00 60 1029.1
20260906063303 59 247 6.1 7.0 0.00 0.04 0.00 61 1029.4
20260906062804 59 247 7.0 8.7 0.00 0.04 0.00 62 1029.4
20260906062306 59 247 7.8 8.7 0.00 0.04 0.00 63 1029.4
20260906061803 59 247 7.0 7.8 0.00 0.04 0.00 63 1029.4
20260906061304 58 247 7.0 7.8 0.00 0.04 0.00 64 1029.4
20260906060901 59 225 6.1 7.8 0.00 0.04 0.00 63 1029.4
20260906055306 60 225 6.1 7.8 0.00 0.04 0.04 62 1029.4
20260906054804 60 225 5.2 7.0 0.00 0.04 0.04 61 1029.4
20260906054303 60 225 6.1 7.8 0.00 0.04 0.04 62 1029.4
20260906053803 60 225 6.1 8.7 0.00 0.04 0.04 63 1029.4
20260906053303 60 225 6.1 7.8 0.00 0.04 0.04 63 1029.4
20260906052804 60 225 6.1 8.7 0.00 0.04 0.04 62 1029.7
20260906052305 60 234 7.0 8.7 0.00 0.04 0.04 62 1029.4
20260906051804 59 233 7.8 10.4 0.00 0.04 0.04 64 1029.5
20260906051303 59 231 7.8 8.7 0.00 0.04 0.04 65 1029.8
20260906050304 59 225 7.8 8.7 0.00 0.04 0.04 65 1029.7
20260906045803 59 225 7.8 8.7 0.00 0.04 0.04 66 1029.4
20260906045306 59 247 7.8 8.7 0.00 0.04 0.04 65 1029.8
20260906044804 59 225 7.8 8.7 0.00 0.04 0.04 65 1029.7
20260906043804 61 225 6.1 7.8 0.00 0.04 0.04 63 1029.8
20260906043304 61 225 6.1 8.7 0.00 0.04 0.04 63 1029.8
20260906042804 62 244 6.1 7.8 0.00 0.04 0.04 60 1029.8
20260906042306 63 225 6.1 10.4 0.00 0.04 0.04 58 1029.8
20260906041804 62 225 6.1 8.7 0.00 0.04 0.04 59 1030.1
20260906041304 62 228 5.2 7.8 0.00 0.04 0.04 61 1030.1
20260906040804 61 225 5.2 7.0 0.01 0.04 0.04 63 1029.8
20260906040304 61 252 5.2 6.1 0.03 0.04 0.04 65 1030.1
20260906035306 61 180 2.6 7.0 0.04 0.04 0.04 65 1030.1
20260906034803 62 269 7.8 8.7 0.04 0.04 0.04 64 1030.1
20260906034304 62 258 9.6 15.6 0.04 0.04 0.04 64 1030.1
20260906033804 62 248 7.8 13.0 0.04 0.04 0.04 64 1030.1
20260906033303 62 225 11.3 15.6 0.04 0.04 0.04 64 1030.1
20260906032803 63 251 7.8 12.2 0.04 0.04 0.04 60 1030.1
20260906032306 64 226 7.8 12.2 0.04 0.04 0.04 53 1029.8
20260906031803 64 90 7.8 13.9 0.04 0.04 0.04 50 1029.8
20260906031303 64 90 7.8 12.2 0.04 0.04 0.04 52 1030.1
20260906030804 65 152 11.3 18.2 0.03 0.03 0.03 53 1030.1
20260906030304 67 232 17.4 22.6 0.01 0.01 0.01 48 1029.8
20260906025803 68 245 6.1 14.8 0.00 0.00 0.00 44 1029.7
20260906025306 67 270 3.5 8.7 0.00 0.00 0.00 45 1029.4
20260906024804 67 225 1.7 4.3 0.00 0.00 0.00 45 1029.1
20260906024303 67 247 2.6 5.2 0.00 0.00 0.00 45 1029.1
20260906023804 67 247 2.6 4.3 0.00 0.00 0.00 46 1029.1
20260906023304 66 263 2.6 7.0 0.00 0.00 0.00 47 1029.1
20260906022803 66 200 5.2 7.0 0.00 0.00 0.00 47 1029.1
20260906022306 67 180 4.3 5.2 0.00 0.00 0.00 46 1028.8
20260906021804 67 180 4.3 5.2 0.00 0.00 0.00 45 1028.7
20260906021304 67 149 2.6 4.3 0.00 0.00 0.00 45 1029.1
20260906020304 68 225 4.3 5.2 0.00 0.00 0.00 44 1029.1
20260906015803 69 225 2.6 5.2 0.00 0.00 0.00 43 1028.7
20260906015306 69 224 3.5 5.2 0.00 0.00 0.00 42 1028.7
20260906014303 70 225 4.3 6.1 0.00 0.00 0.00 42 1028.7
20260906013803 70 180 5.2 7.8 0.00 0.00 0.00 42 1028.7
20260906013303 70 180 4.3 6.1 0.00 0.00 0.00 41 1028.7
20260906012804 71 135 5.2 7.8 0.00 0.00 0.00 41 1028.7
20260906012306 71 135 6.1 7.8 0.00 0.00 0.00 41 1028.7
20260906011803 71 135 6.1 10.4 0.00 0.00 0.00 40 1028.7
20260906011303 72 126 5.2 10.4 0.00 0.00 0.00 40 1028.5
20260906010804 72 119 7.8 10.4 0.00 0.00 0.00 39 1028.4
20260906010303 73 120 7.8 10.4 0.00 0.00 0.00 38 1028.5
20260906005804 73 135 6.1 10.4 0.00 0.00 0.00 38 1028.7
20260906005306 74 130 7.0 10.4 0.00 0.00 0.00 37 1028.4
20260906004804 75 135 5.2 7.8 0.00 0.00 0.00 37 1028.5
20260906004303 75 136 7.8 12.2 0.00 0.00 0.00 36 1028.4
20260906003803 76 134 3.5 7.8 0.00 0.00 0.00 36 1028.4
20260906003303 76 135 6.1 8.7 0.00 0.00 0.00 36 1028.4
20260906002804 76 135 6.1 8.7 0.00 0.00 0.00 35 1028.4
20260906002306 76 135 7.8 10.4 0.00 0.00 0.00 35 1028.4
20260906001804 76 135 5.2 8.7 0.00 0.00 0.00 35 1028.4
20260906001304 76 130 7.8 11.3 0.00 0.00 0.00 35 1028.4
20260906000803 76 112 7.0 13.0 0.00 0.00 0.00 35 1028.1
20260906000304 77 62 8.7 13.9 0.00 0.00 0.00 34 1028.1
20260905235803 77 45 6.1 11.3 0.00 0.00 0.00 35 1028.1
20260905235306 76 58 7.8 10.4 0.00 0.00 0.00 36 1028.1
20260905234804 76 42 7.0 10.4 0.00 0.00 0.00 35 1028.1
20260905234303 76 48 6.1 11.3 0.00 0.00 0.00 35 1028.1
20260905233804 77 81 8.7 13.0 0.00 0.00 0.00 34 1028.1
20260905233303 77 90 11.3 14.8 0.00 0.00 0.00 34 1028.1
20260905232803 77 82 8.7 13.0 0.00 0.00 0.00 33 1028.1
20260905232306 77 90 8.7 13.9 0.00 0.00 0.00 33 1027.8
20260905231803 77 92 4.3 10.4 0.00 0.00 0.00 33 1028.0
20260905231303 76 97 4.3 12.2 0.00 0.00 0.00 34 1028.1
20260905230804 76 99 10.4 14.8 0.00 0.00 0.00 35 1027.8
20260905230304 77 90 10.4 14.8 0.00 0.00 0.00 34 1028.1
20260905225803 78 91 11.3 18.2 0.00 0.00 0.00 32 1027.7
20260905225305 79 90 12.2 18.2 0.00 0.00 0.00 31 1027.7
20260905224803 79 140 7.0 19.1 0.00 0.00 0.00 30 1028.0
20260905223803 78 82 8.7 13.9 0.00 0.00 0.00 33 1028.1
20260905223304 79 75 12.2 17.4 0.00 0.00 0.00 32 1028.1
20260905222803 81 90 11.3 15.6 0.00 0.00 0.00 29 1028.0
20260905222306 82 112 7.8 32.2 0.00 0.00 0.00 27 1027.8
20260905221304 82 66 5.2 11.3 0.00 0.00 0.00 21 1028.1
20260905220804 81 271 2.6 7.8 0.00 0.00 0.00 21 1028.4
20260905220304 81 225 6.1 8.7 0.00 0.00 0.00 21 1028.4
20260905215804 81 225 8.7 13.0 0.00 0.00 0.00 22 1028.1
20260905215306 81 271 8.7 13.9 0.00 0.00 0.00 22 1028.1